Starlink 4778

operational
NORAD ID: 53836 Int'l Des: 2022-114 Owner: SPXS Country: US Constellation: starlink
LEOCIRCULAR

About Starlink 4778

Description loading...

Live Position

Loading 3D Globe...

Upcoming Passes

Altitude History

Altitude vs Time

uPlot chart will show altitude changes over time

Two-Line Element Set

1 53836U 22114U 25304.75311522 .00000197 00000-0 30492-4 0 9994
2 53836 53.2152 153.1439 0001398 92.0477 268.0676 15.08833634173503
Epoch: Oct 31, 2025 • Age: 9 hours

Current Status

Altitude 556.7 km
Velocity 7.58 km/s
Sub-Earth Point -46.97°S, 63.02°W
Launch Date Sep 19, 2022
Age 3.1 years
Type internet

Technical Details

Classification Payload
Mass 305.00 kg
Dry Mass 290.00 kg
Total Mass 305.00 kg
Length 0.20 m
Diameter 2.80 m
Span 9.00 m
Shape Box + pan
Manufacturer SPXS
Bus Type Starlink
Phase Status In Orbit
Owner/State SPXS/US

Large Constellations

Loading constellations...